Flight Track Log - Related Links

Times and Time Zones

All times are in EDT time to prevent confusion due to time zone crossing. See the SLQ734 flight status page for this flight to view local times or setup timezone preferences in your user account.

Time Position Orientation Groundspeed Altitude Reporting Facility
EDT Latitude Longitude Course Direction KTS MPH feet Rate Location/Type
Thu 07:17:31 AM 43.1667 -79.9000 360° North 20 23 800  Level Toronto Center
Thu 07:18:31 AM 43.1667 -79.9000 360° North 30 35 800 50 Level Toronto Center
Thu 07:19:31 AM 43.1667 -79.9000 180° South 80 92 900 1,050 Climbing Toronto Center
Thu 07:20:31 AM 43.1333 -79.9500 228° Southwest 140 161 2,900 1,950 Climbing Toronto Center
Thu 07:21:31 AM 43.1167 -80.0000 245° Southwest 160 184 4,800 1,950 Climbing Toronto Center
Thu 07:22:31 AM 43.1167 -80.0667 270° West 180 207 6,800 2,000 Climbing Toronto Center
Thu 07:23:31 AM 43.1167 -80.1333 270° West 190 219 8,800 1,900 Climbing Toronto Center
Thu 07:24:31 AM 43.1167 -80.2333 270° West 190 219 10,600 1,500 Climbing Toronto Center
Thu 07:25:31 AM 43.1000 -80.3000 251° West 190 219 11,800 1,200 Climbing Toronto Center
Thu 07:26:31 AM 43.0833 -80.3667 251° West 190 219 13,000 950 Climbing Toronto Center
Thu 07:27:31 AM 43.0833 -80.4333 270° West 200 230 13,700 500 Climbing Toronto Center
Thu 07:28:31 AM 43.0667 -80.5167 255° West 210 242 14,000 100 Climbing Toronto Center
Thu 07:29:31 AM 43.0500 -80.6167 257° West 240 276 13,900  Descending Toronto Center
Thu 07:30:31 AM 43.0333 -80.7000 255° West 250 288 14,000 50 Climbing Toronto Center
Thu 07:31:31 AM 43.0167 -80.8000 257° West 250 288 14,000  Level Toronto Center
Thu 07:32:31 AM 42.9833 -80.8833 241° Southwest 260 299 14,000  Level Toronto Center
Thu 07:33:31 AM 42.9833 -80.9833 270° West 250 288 14,000  Level Toronto Center
Thu 07:34:31 AM 42.9667 -81.0833 257° West 250 288 14,000 -200 Level Toronto Center
Thu 07:35:31 AM 42.9500 -81.1833 257° West 260 299 13,600 -550 Descending Toronto Center
Thu 07:36:31 AM 42.9333 -81.2667 255° West 270 311 12,900 -650 Descending Toronto Center
Thu 07:37:31 AM 42.9167 -81.3833 259° West 280 322 12,300 -450 Descending Toronto Center
Thu 07:38:31 AM 42.9000 -81.4833 257° West 280 322 12,000 -100 Descending Toronto Center
Thu 07:39:31 AM 42.8833 -81.5667 255° West 260 299 12,100 -50 Climbing Toronto Center
Thu 07:40:31 AM 42.8667 -81.6500 255° West 260 299 11,900 -375 Descending Toronto Center
Thu 07:41:23 AM 42.8647 -81.7614 269° West 268 308 11,400 -690 Descending Cleveland Center
Thu 07:42:24 AM 42.8511 -81.8661 260° West 274 315 10,600 -650 Descending Cleveland Center
Thu 07:43:23 AM 42.8311 -81.9703 255° West 279 321 10,100 -303 Descending Cleveland Center
Thu 07:44:23 AM 42.8111 -82.0633 254° West 274 315 10,000 -850 Descending Cleveland Center
Thu 07:45:23 AM 42.7828 -82.1644 249° West 279 321 8,400 -1,500 Descending Cleveland Center
Thu 07:46:23 AM 42.7564 -82.2628 250° West 284 327 7,000 -1,350 Descending Cleveland Center
Thu 07:47:23 AM 42.7319 -82.3611 251° West 284 327 5,700 -1,000 Descending Cleveland Center
Thu 07:48:23 AM 42.7056 -82.4536 249° West 279 321 5,000 -429 Descending Cleveland Center
Thu 07:49:15 AM 42.6875 -82.5406 254° West 242 278 4,900  Descending Cleveland Center
Thu 07:49:52 AM 42.6617 -82.5794 228° Southwest 235 270 5,000 88 Climbing Cleveland Center
Thu 07:50:23 AM 42.6386 -82.5928 203° Southwest 225 259 5,000  Level Cleveland Center
Thu 07:50:53 AM 42.6069 -82.6142 206° Southwest 219 252 5,000 -429 Level Cleveland Center
Thu 07:51:47 AM 42.5542 -82.6436 202° Southwest 223 257 4,400 -522 Descending Cleveland Center
Thu 07:52:48 AM 42.4911 -82.6811 204° Southwest 236 272 4,000 -197 Descending Cleveland Center
Thu 07:53:49 AM 42.4383 -82.7158 206° Southwest 222 255 4,000 -246 Level Cleveland Center
Thu 07:54:50 AM 42.3833 -82.7561 208° Southwest 226 260 3,500 -738 Descending Cleveland Center
Thu 07:55:51 AM 42.3383 -82.8219 227° Southwest 219 252 2,500 -787 Descending Cleveland Center
Thu 07:56:52 AM 42.3122 -82.8717 235° Southwest 142 163 1,900 -689 Descending Cleveland Center
Thu 07:57:53 AM 42.2947 -82.9186 243° Southwest 126 145 1,100 -787 Descending Cleveland Center

Login

Don't have an account? Register now (free) for customized features, flight alerts, and more!